TimeCST,TemperatureF,Dew PointF,Humidity,Sea Level PressureIn,VisibilityMPH,Wind Direction,Wind SpeedMPH,Gust SpeedMPH,PrecipitationIn,Events,Conditions,WindDirDegrees,DateUTC
12:15 AM,-4.2,-8.9,80,30.45,10.0,Calm,Calm,-,N/A,,Clear,0,2013-02-21 06:15:00
12:35 AM,-5.4,-9.2,84,30.46,10.0,Calm,Calm,-,N/A,,Clear,0,2013-02-21 06:35:00
12:55 AM,-3.8,-6.9,87,30.46,10.0,WSW,3.5,-,N/A,,Clear,240,2013-02-21 06:55:00
1:15 AM,-5.3,-8.5,86,30.47,10.0,WSW,3.5,-,N/A,,Clear,250,2013-02-21 07:15:00
1:35 AM,-4.5,-8.0,85,30.47,10.0,West,3.5,-,N/A,,Clear,260,2013-02-21 07:35:00
1:55 AM,-5.8,-10.1,82,30.48,10.0,Calm,Calm,-,N/A,,Clear,0,2013-02-21 07:55:00
2:15 AM,-7.1,-11.0,83,30.48,10.0,Calm,Calm,-,N/A,,Clear,0,2013-02-21 08:15:00
2:35 AM,-8.1,-12.6,81,30.48,10.0,Calm,Calm,-,N/A,,Clear,0,2013-02-21 08:35:00
2:55 AM,-8.1,-12.5,81,30.48,10.0,Calm,Calm,-,N/A,,Clear,0,2013-02-21 08:55:00
3:15 AM,-7.4,-11.2,84,30.46,10.0,SE,3.5,-,N/A,,Clear,140,2013-02-21 09:15:00
3:35 AM,-7.8,-11.6,84,30.46,10.0,Calm,Calm,-,N/A,,Clear,0,2013-02-21 09:35:00
3:55 AM,-6.9,-10.8,83,30.46,10.0,Calm,Calm,-,N/A,,Clear,0,2013-02-21 09:55:00
4:15 AM,-6.0,-10.1,82,30.48,10.0,SW,3.5,-,N/A,,Clear,230,2013-02-21 10:15:00
4:35 AM,-8.9,-13.4,81,30.48,10.0,Calm,Calm,-,N/A,,Clear,0,2013-02-21 10:35:00
4:55 AM,-8.7,-12.8,82,30.49,10.0,WSW,3.5,-,N/A,,Clear,240,2013-02-21 10:55:00
5:15 AM,-7.4,-11.7,81,30.49,10.0,SW,3.5,-,N/A,,Clear,220,2013-02-21 11:15:00
6:15 AM,-9.4,-13.9,81,30.49,10.0,SW,3.5,-,N/A,,Mostly Cloudy,220,2013-02-21 12:15:00
6:35 AM,-10.3,-14.8,81,30.48,10.0,South,3.5,-,N/A,,Overcast,190,2013-02-21 12:35:00
6:55 AM,-9.6,-13.9,81,30.46,10.0,Calm,Calm,-,N/A,,Overcast,0,2013-02-21 12:55:00
7:15 AM,-7.8,-11.9,82,30.44,10.0,Calm,Calm,-,N/A,,Overcast,0,2013-02-21 13:15:00
7:35 AM,-3.8,-7.6,84,30.41,10.0,NE,3.5,-,N/A,,Overcast,50,2013-02-21 13:35:00
7:55 AM,-1.8,-6.0,83,30.41,5.0,Calm,Calm,-,N/A,Snow,Light Snow,0,2013-02-21 13:55:00
8:15 AM,2.3,-1.5,84,30.41,7.0,Calm,Calm,-,N/A,Snow,Light Snow,0,2013-02-21 14:15:00
8:35 AM,3.7,-0.6,82,30.46,7.0,WSW,9.2,-,N/A,Snow,Light Snow,240,2013-02-21 14:35:00
8:55 AM,3.4,-0.6,84,30.51,10.0,SW,8.1,-,N/A,,Overcast,230,2013-02-21 14:55:00
9:15 AM,6.8,2.3,82,30.52,10.0,Calm,Calm,-,N/A,Snow,Light Snow,0,2013-02-21 15:15:00
9:35 AM,8.1,3.9,83,30.49,7.0,NW,3.5,-,N/A,Snow,Light Snow,320,2013-02-21 15:35:00
9:55 AM,10.4,5.9,82,30.49,10.0,North,3.5,-,N/A,Snow,Light Snow,10,2013-02-21 15:55:00
10:15 AM,17.6,10.4,73,30.48,10.0,ESE,9.2,-,N/A,Snow,Light Snow,120,2013-02-21 16:15:00
10:35 AM,19.0,11.1,71,30.47,10.0,East,10.4,-,N/A,,Overcast,100,2013-02-21 16:35:00
10:55 AM,19.4,10.9,70,30.45,10.0,East,11.5,-,N/A,Snow,Light Snow,80,2013-02-21 16:55:00
11:15 AM,19.4,11.3,71,30.45,10.0,East,10.4,-,N/A,Snow,Light Snow,100,2013-02-21 17:15:00
11:35 AM,20.1,12.0,71,30.46,10.0,East,11.5,17.3,N/A,,Overcast,80,2013-02-21 17:35:00
11:55 AM,21.0,12.0,68,30.46,10.0,East,12.7,17.3,N/A,,Overcast,100,2013-02-21 17:55:00
12:15 PM,21.0,12.2,69,30.45,10.0,NE,11.5,-,N/A,,Overcast,50,2013-02-21 18:15:00
12:35 PM,20.7,11.8,69,30.44,10.0,ENE,10.4,-,N/A,,Overcast,70,2013-02-21 18:35:00
12:55 PM,21.7,12.7,68,30.43,10.0,East,8.1,17.3,N/A,,Overcast,80,2013-02-21 18:55:00
1:15 PM,22.8,14.0,69,30.42,10.0,ENE,10.4,17.3,N/A,,Overcast,60,2013-02-21 19:15:00
1:35 PM,23.0,14.2,69,30.41,10.0,ENE,10.4,16.1,N/A,,Overcast,60,2013-02-21 19:35:00
1:55 PM,22.1,14.5,73,30.40,10.0,ENE,11.5,16.1,N/A,,Overcast,70,2013-02-21 19:55:00
2:15 PM,22.6,14.0,69,30.39,10.0,ENE,12.7,18.4,N/A,,Overcast,60,2013-02-21 20:15:00
2:35 PM,23.0,14.7,71,30.38,10.0,ENE,10.4,20.7,N/A,,Overcast,60,2013-02-21 20:35:00
2:55 PM,22.8,14.9,72,30.36,10.0,ENE,16.1,21.9,N/A,,Overcast,60,2013-02-21 20:55:00
3:15 PM,22.8,15.6,74,30.36,10.0,ENE,11.5,18.4,N/A,,Overcast,70,2013-02-21 21:15:00
3:35 PM,22.8,15.8,74,30.36,10.0,ENE,11.5,-,N/A,,Overcast,60,2013-02-21 21:35:00
3:55 PM,23.0,15.8,74,30.36,10.0,ENE,16.1,19.6,N/A,,Overcast,70,2013-02-21 21:55:00
4:15 PM,22.6,16.5,77,30.36,10.0,ENE,12.7,23.0,N/A,,Overcast,60,2013-02-21 22:15:00
4:35 PM,22.5,17.2,80,30.36,10.0,ENE,13.8,20.7,N/A,,Overcast,70,2013-02-21 22:35:00
4:55 PM,22.1,17.2,82,30.36,10.0,ENE,13.8,20.7,N/A,,Overcast,70,2013-02-21 22:55:00
5:15 PM,22.1,16.5,79,30.36,10.0,East,10.4,20.7,N/A,,Overcast,80,2013-02-21 23:15:00
5:35 PM,22.1,17.1,81,30.34,10.0,East,12.7,-,N/A,,Overcast,90,2013-02-21 23:35:00
5:55 PM,22.1,17.6,83,30.34,10.0,East,12.7,20.7,N/A,,Overcast,80,2013-02-21 23:55:00
6:15 PM,22.3,17.6,82,30.34,10.0,East,15.0,21.9,N/A,,Overcast,90,2013-02-22 00:15:00
6:35 PM,22.5,18.1,83,30.32,10.0,East,17.3,23.0,N/A,,Overcast,90,2013-02-22 00:35:00
6:55 PM,22.6,18.9,85,30.32,10.0,East,17.3,20.7,N/A,,Overcast,90,2013-02-22 00:55:00
7:15 PM,22.8,18.9,85,30.31,10.0,East,11.5,19.6,N/A,,Overcast,80,2013-02-22 01:15:00
7:35 PM,23.4,19.2,84,30.29,10.0,East,19.6,25.3,N/A,,Overcast,80,2013-02-22 01:35:00
7:55 PM,23.5,20.1,87,30.28,10.0,East,11.5,23.0,N/A,,Overcast,80,2013-02-22 01:55:00
8:15 PM,23.9,20.3,86,30.27,10.0,East,18.4,24.2,N/A,,Overcast,80,2013-02-22 02:15:00
8:35 PM,24.3,20.8,87,30.27,10.0,East,16.1,28.8,N/A,,Overcast,90,2013-02-22 02:35:00
8:55 PM,23.7,20.3,87,30.26,10.0,East,16.1,25.3,N/A,,Overcast,90,2013-02-22 02:55:00
9:15 PM,23.7,20.7,88,30.26,10.0,East,13.8,19.6,N/A,,Overcast,90,2013-02-22 03:15:00
9:35 PM,23.7,21.2,90,30.24,10.0,East,17.3,25.3,N/A,,Overcast,80,2013-02-22 03:35:00
9:55 PM,23.9,21.6,91,30.23,10.0,Calm,Calm,-,N/A,,Overcast,0,2013-02-22 03:55:00
10:15 PM,24.4,22.1,91,30.22,10.0,East,15.0,27.6,N/A,,Overcast,80,2013-02-22 04:15:00
10:35 PM,24.4,21.7,89,30.21,10.0,East,15.0,23.0,N/A,,Overcast,90,2013-02-22 04:35:00
10:55 PM,24.4,22.1,91,30.20,10.0,East,16.1,24.2,N/A,,Overcast,90,2013-02-22 04:55:00
11:15 PM,24.6,21.7,89,30.19,10.0,East,16.1,20.7,N/A,,Overcast,80,2013-02-22 05:15:00
11:35 PM,24.3,20.5,85,30.19,10.0,East,18.4,25.3,N/A,,Overcast,90,2013-02-22 05:35:00
11:55 PM,23.9,19.4,83,30.18,10.0,East,15.0,24.2,N/A,,Overcast,80,2013-02-22 05:55:00